Date String (YYYY-MM-DD hh:mm:ss) UTC,Instrument flags,Ambient pressure (hPa),Sample flow (lpm),Bypass flow (lpm),Sample temperature (°C),Ambient temperature (°C),ASC tube jacket temperature (°C),LED temperature (°C),Box temperature (°C),Sample RH (%),Span deviation,Mass concentration (μg/m³),Mass concentration (μg/m³),Mass concentration (μg/m³)
DateTimeUTC,F1_M11,P_M11,Q1_M11,Q2_M11,T1_M11,T2_M11,T3_M11,T4_M11,T5_M11,U1_M11,ZSPAN_M11,X0_M11,X2_M11,X1_M11
2022-02-04 14:00:00,,0834.7,4.99,0.00,22.0,22.7,00.0,30.9,23.7,04.9,0000.0,0003.63,0002.18,0001.92
2022-02-04 14:01:00,,0834.7,5.00,0.00,21.9,22.2,00.0,30.9,23.5,05.0,0000.0,0003.55,0002.17,0001.93
2022-02-04 14:02:00,,0834.7,5.00,0.00,21.8,21.7,00.0,30.8,23.3,05.0,0000.0,0003.47,0002.16,0001.94
2022-02-04 14:03:00,,0834.7,5.00,0.00,21.7,21.3,00.0,30.8,23.0,05.1,0000.0,0003.44,0002.15,0001.94
2022-02-04 14:04:00,,0834.7,5.00,0.00,21.5,20.9,00.0,30.8,22.8,05.2,0000.0,0003.37,0002.12,0001.94
2022-02-04 14:05:00,,0834.8,5.01,0.00,21.4,20.8,00.0,30.7,22.7,05.3,0000.0,0003.25,0002.07,0001.92
2022-02-04 14:06:00,,0834.8,4.99,0.00,21.5,21.4,00.0,30.7,23.0,05.4,0000.0,0003.23,0002.06,0001.90
2022-02-04 14:07:00,,0834.8,5.01,0.00,21.6,22.2,00.0,30.8,23.3,05.6,0000.0,0003.25,0002.04,0001.87
2022-02-04 14:08:00,,0834.8,5.00,0.00,21.8,22.8,00.0,30.8,23.6,05.6,0000.0,0002.58,0001.98,0001.81
2022-02-04 14:09:00,,0834.8,5.00,0.00,22.0,23.2,00.0,30.9,23.9,05.5,0000.0,0002.31,0001.86,0001.72
2022-02-04 14:10:00,,0834.8,5.01,0.00,22.0,22.6,00.0,30.9,23.7,05.5,0000.0,0002.25,0001.76,0001.64
2022-02-04 14:11:00,,0834.8,5.00,0.00,21.8,22.0,00.0,30.8,23.4,05.5,0000.0,0002.21,0001.71,0001.57
2022-02-04 14:12:00,,0834.7,5.00,0.00,21.7,21.4,00.0,30.8,23.1,05.5,0000.0,0002.12,0001.63,0001.49
2022-02-04 14:13:00,,0834.8,5.00,0.00,21.6,20.9,00.0,30.8,22.9,05.6,0000.0,0002.13,0001.57,0001.42
2022-02-04 14:14:00,,0834.7,4.99,0.00,21.4,20.6,00.0,30.7,22.7,05.6,0000.0,0002.20,0001.51,0001.34
2022-02-04 14:15:00,,0834.8,5.00,0.00,21.4,20.9,00.0,30.7,22.7,05.7,0000.0,0002.19,0001.47,0001.28
2022-02-04 14:16:00,,0834.8,4.99,0.00,21.5,21.7,00.0,30.7,23.1,05.5,0000.0,0002.19,0001.43,0001.22
2022-02-04 14:17:00,,0834.8,5.00,0.00,21.7,22.4,00.0,30.8,23.4,05.6,0000.0,0002.14,0001.37,0001.16
2022-02-04 14:18:00,,0834.7,5.01,0.00,21.8,23.0,00.0,30.8,23.7,05.6,0000.0,0002.04,0001.31,0001.12
2022-02-04 14:19:00,,0834.8,4.99,0.00,21.9,22.6,00.0,30.8,23.6,05.6,0000.0,0001.93,0001.26,0001.08
2022-02-04 14:20:00,,0834.8,5.00,0.00,21.8,22.0,00.0,30.8,23.3,05.7,0000.0,0001.93,0001.25,0001.06
2022-02-04 14:21:00,,0834.7,5.02,0.00,21.7,21.5,00.0,30.8,23.1,05.8,0000.0,0001.82,0001.23,0001.05
2022-02-04 14:22:00,,0834.7,5.00,0.00,21.5,21.1,00.0,30.7,22.8,05.8,0000.0,0001.78,0001.21,0001.02
2022-02-04 14:23:00,,0834.8,5.00,0.00,21.4,20.6,00.0,30.7,22.6,05.8,0000.0,0001.82,0001.22,0001.02
2022-02-04 14:24:00,,0834.7,5.00,0.00,21.3,20.8,00.0,30.6,22.6,05.8,0000.0,0001.72,0001.20,0001.01
2022-02-04 14:25:00,,0834.8,5.00,0.00,21.5,21.7,00.0,30.7,23.0,05.7,0000.0,0001.54,0001.16,0001.00
2022-02-04 14:26:00,,0834.8,5.00,0.00,21.6,22.5,00.0,30.7,23.4,05.5,0000.0,0001.44,0001.11,0000.98
2022-02-04 14:27:00,,0834.9,5.00,0.00,21.8,23.1,00.0,30.7,23.6,05.5,0000.0,0001.38,0001.09,0000.97
2022-02-04 14:28:00,,0834.9,4.99,0.00,21.8,22.7,00.0,30.8,23.5,05.4,0000.0,0001.33,0001.07,0000.96
2022-02-04 14:29:00,,0834.9,4.99,0.00,21.7,22.1,00.0,30.7,23.3,05.4,0000.0,0001.46,0001.06,0000.96
2022-02-04 14:30:00,,0834.9,5.00,0.00,21.6,21.5,00.0,30.7,23.0,05.7,0000.0,0001.89,0001.06,0000.96
2022-02-04 14:31:00,,0834.9,4.99,0.00,21.4,21.1,00.0,30.7,22.7,05.7,0000.0,0001.88,0001.04,0000.96
2022-02-04 14:32:00,,0834.9,5.01,0.00,21.3,20.8,00.0,30.6,22.6,05.7,0000.0,0002.23,0001.04,0000.96
2022-02-04 14:33:00,,0834.9,4.98,0.00,21.4,21.5,00.0,30.6,22.9,05.6,0000.0,0002.21,0001.03,0000.96
2022-02-04 14:34:00,,0834.8,5.02,0.00,21.5,22.3,00.0,30.7,23.3,05.5,0000.0,0002.19,0001.02,0000.96
2022-02-04 14:35:00,,0834.9,4.99,0.00,21.7,23.0,00.0,30.7,23.6,05.5,0000.0,0002.24,0001.04,0000.96
2022-02-04 14:36:00,,0834.9,5.00,0.00,21.8,22.6,00.0,30.7,23.5,05.5,0000.0,0002.26,0001.05,0000.97
2022-02-04 14:37:00,,0834.8,5.01,0.00,21.7,22.1,00.0,30.7,23.2,05.5,0000.0,0002.27,0001.05,0000.97
2022-02-04 14:38:00,,0834.9,5.00,0.00,21.6,21.5,00.0,30.7,23.0,05.7,0000.0,0002.46,0001.06,0000.98
2022-02-04 14:39:00,,0834.8,4.99,0.00,21.4,21.0,00.0,30.6,22.8,05.7,0000.0,0002.53,0001.07,0000.98
2022-02-04 14:40:00,,0834.8,5.01,0.00,21.3,20.6,00.0,30.6,22.5,05.7,0000.0,0002.34,0001.05,0000.97
2022-02-04 14:41:00,,0834.8,4.99,0.00,21.2,20.9,00.0,30.5,22.6,05.8,0000.0,0001.91,0001.05,0000.97
2022-02-04 14:42:00,,0834.8,5.01,0.00,21.4,21.8,00.0,30.6,23.0,05.9,0000.0,0001.94,0001.05,0000.97
2022-02-04 14:43:00,,0834.9,5.00,0.00,21.6,22.6,00.0,30.6,23.3,05.8,0000.0,0001.64,0001.06,0000.97
2022-02-04 14:44:00,,0834.8,5.00,0.00,21.7,22.9,00.0,30.7,23.5,05.8,0000.0,0001.67,0001.07,0000.96
2022-02-04 14:45:00,,0834.7,4.99,0.00,21.7,22.3,00.0,30.7,23.3,05.8,0000.0,0001.66,0001.07,0000.96
2022-02-04 14:46:00,,0834.7,5.00,0.00,21.6,21.7,00.0,30.6,23.0,05.7,0000.0,0001.71,0001.07,0000.95
2022-02-04 14:47:00,,0834.7,4.99,0.00,21.4,21.1,00.0,30.6,22.8,05.8,0000.0,0003.17,0001.10,0000.95
2022-02-04 14:48:00,,0834.7,4.99,0.00,21.3,20.7,00.0,30.6,22.6,05.9,0000.0,0003.21,0001.12,0000.95
2022-02-04 14:49:00,,0834.8,5.01,0.00,21.2,20.9,00.0,30.5,22.6,05.9,0000.0,0003.04,0001.12,0000.95
2022-02-04 14:50:00,,0834.8,4.99,0.00,21.4,22.0,00.0,30.6,23.0,05.8,0000.0,0003.00,0001.12,0000.95
2022-02-04 14:51:00,,0834.8,5.01,0.00,21.6,22.8,00.0,30.6,23.4,05.6,0000.0,0003.05,0001.14,0000.96
2022-02-04 14:52:00,,0834.8,4.99,0.00,21.7,23.2,00.0,30.7,23.6,05.4,0000.0,0003.27,0001.14,0000.96
2022-02-04 14:53:00,,0834.7,5.00,0.00,21.7,22.5,00.0,30.7,23.4,05.5,0000.0,0003.45,0001.15,0000.97
2022-02-04 14:54:00,,0834.8,5.01,0.00,21.6,21.8,00.0,30.6,23.1,05.5,0000.0,0003.39,0001.14,0000.97
2022-02-04 14:55:00,,0834.8,5.00,0.00,21.5,21.2,00.0,30.6,22.8,05.6,0000.0,0003.69,0001.16,0000.98
2022-02-04 14:56:00,,0834.8,4.99,0.00,21.3,20.7,00.0,30.6,22.6,05.7,0000.0,0003.94,0001.17,0000.98
2022-02-04 14:57:00,,0834.9,5.01,0.00,21.2,20.4,00.0,30.5,22.5,05.8,0000.0,0003.93,0001.16,0000.98
2022-02-04 14:58:00,,0835.0,5.00,0.00,21.3,21.3,00.0,30.5,22.7,05.8,0000.0,0002.54,0001.13,0000.98
2022-02-04 14:59:00,,0834.9,5.00,0.00,21.4,22.3,00.0,30.6,23.1,05.7,0000.0,0002.40,0001.14,0000.98
